Flag for U.S.A. Weather past 2 weeks in New Salem, North Dakota, U.S.A.

Now
39 °F

Sunny.


Feels Like: 29 °F
Forecast: 30 / 59 °F
Wind: 22 mph from Southeast

Location: Bismarck Municipal Airport


UV Index: 0 (Low)

Visibility: 10 mi


Pressure: 30.06 "Hg

Humidity: 50%

Dew point: 22 °F

Location of New SalemLocation

Historic Weather in New Salem

°F

New Salem temperature yesterday

Maximum temperature yesterday: 46 °F (at 4:52 PM)
Minimum temperature yesterday: 24 °F (at 5:52 AM)
Average temperature yesterday: 35 °F

Past Weeks' High & Low Weather Summary

 TemperatureHumidityPressure
High78 °F (Apr 9, 2:52 PM)96% (Apr 3, 7:52 AM)30.39 "Hg (Apr 3, 7:52 AM)
Low16 °F (Apr 14, 11:52 PM)20% (Apr 9, 2:52 PM)29.51 "Hg (Apr 9, 3:52 PM)
Average38 °F62%30.00 "Hg
* Reported Apr 3 7:52 AM — Apr 18 7:52 AM, New Salem, Weather by CustomWeather, © 2014

Note: Actual official high and low records may vary slightly from our data, if they occured in-between our weather recording intervals... More about our weather records

Advertising

Historic Weather Conditions — Data for Previous 24 hours

 ConditionsComfort  
Time TempWeatherWind HumidityBarometerVisibility
7:52 AM
Apr 18
36 °FScattered clouds.20 mph57%30.09 "Hg10 mi
6:52 AM35 °FOvercast.16 mph59%30.09 "Hg10 mi
5:52 AM35 °FMostly cloudy.14 mph59%30.11 "Hg10 mi
4:52 AM34 °FClear.13 mph61%30.11 "Hg10 mi
3:52 AM34 °FClear.14 mph59%30.13 "Hg10 mi
2:52 AM34 °FPassing clouds.12 mph61%30.15 "Hg10 mi
1:52 AM35 °FOvercast.10 mph61%30.18 "Hg10 mi
12:52 AM34 °FPassing clouds.14 mph67%30.17 "Hg10 mi
11:52 PM
Apr 17
31 °FClear.7 mph73%30.19 "Hg10 mi
10:52 PM33 °FPassing clouds.8 mph66%30.20 "Hg10 mi
9:52 PM35 °FPassing clouds.8 mph61%30.20 "Hg10 mi
8:52 PM42 °FOvercast.9 mph51%30.19 "Hg10 mi
7:52 PM44 °FOvercast.14 mph43%30.20 "Hg10 mi
6:52 PM45 °FOvercast.16 mph37%30.20 "Hg10 mi
5:52 PM45 °FOvercast.13 mph37%30.22 "Hg10 mi
4:52 PM46 °FOvercast.18 mph34%30.23 "Hg10 mi
3:52 PM45 °FMostly cloudy.17 mph35%30.24 "Hg10 mi
2:52 PM45 °FPartly sunny.13 mph34%30.27 "Hg10 mi
1:52 PM42 °FOvercast.12 mph36%30.29 "Hg10 mi
12:52 PM41 °FSunny.10 mph36%30.31 "Hg10 mi
11:52 AM38 °FPassing clouds.8 mph37%30.34 "Hg10 mi
10:52 AM32 °FOvercast.9 mph50%30.37 "Hg10 mi
Weather by CustomWeather, © 2014

See weather overview